Terug naar catalogus

BREEZE-M DEB

ActiefHEO
NORAD 37198·DEBRIS·🇷🇺 Russia

Gelanceerd Mar 14, 2008 vanaf Baikonur Cosmodrome

Loading…

Volgende Passages (komende 24 uur)

TLE

VersSource: Space-Track

Epoch: Sep 13, 2026, 01:27 UTC

1 37198U 08011C   26256.06078743  .00001425  00000-0  16606-2 0  9997
2 37198  49.0488 140.2671 6580266  59.7915 349.2337  3.12838361181032

Volg BREEZE-M DEB in realtime met AllMySat

Download on the App Store